Mount Pleasant, MI

7:19 AM EST on December 11, 2016 (GMT -0500)
Mount Pleasant Municipal

Weather History for KMOP - February, 2013

Change the Weather History Date:

Wednesday, February 20, 2013

  Actual Average (KAMN) Record (KAMN)
Temperature  
Mean Temperature 18 °F -  
Max Temperature 22 °F 35 °F 54 °F (2016)
Min Temperature 14 °F 18 °F -21 °F (2015)
Degree Days  
Heating Degree Days 47    
Moisture  
Dew Point 11 °F    
Average Humidity 70    
Maximum Humidity 77    
Minimum Humidity 59    
Precipitation  
Precipitation 0.00 in - - ()
Sea Level Pressure  
Sea Level Pressure 30.08 in    
Wind  
Wind Speed 11 mph (WNW)    
Max Wind Speed 17 mph    
Max Gust Speed 25 mph    
Visibility 10 miles    
Events Snow    
Averages and records for this station are not official NWS values.
T = Trace of Precipitation, MM = Missing Value Source: NWS Daily Summary

Daily Weather History Graph

Daily Weather History Graph

Search for Another Location

Airport or City:

Trip Planner

Search our weather history database for the weather conditions in past years. The results will help you decide how hot, cold, wet, or windy it might be!

Date:

Astronomy

Feb. 20, 2013 Rise Set
Actual Time 7:29 AM EST 6:16 PM EST
Civil Twilight 7:00 AM EST 6:45 PM EST
Nautical Twilight 6:27 AM EST 7:18 PM EST
Astronomical Twilight 5:54 AM EST 7:52 PM EST
Moon 1:31 PM EST (2/20) 3:54 AM EST (2/20)
Length of Visible Light 11h 45m
Length of Day
10h 46m
Waxing Gibbous, 76% of the Moon is Illuminated
Feb 20
Waxing Gibbous
Feb 25
Full
Mar 4
Last Quarter
Mar 11
New
Mar 19
First Quarter

Hourly Weather History & Observations

Time (EST) Temp. Windchill Dew Point Humidity Pressure Visibility Wind Dir Wind Speed Gust Speed Precip Events Conditions
12:15 AM 16.7 °F 5.3 °F 7.7 °F 68% 29.88 in 10.0 mi West 9.2 mph - N/A   Scattered Clouds
12:34 AM 16.3 °F 3.4 °F 7.7 °F 69% 29.89 in 10.0 mi West 11.5 mph 18.4 mph N/A   Scattered Clouds
12:55 AM 15.8 °F 3.4 °F 7.7 °F 70% 29.89 in 10.0 mi West 10.4 mph - N/A   Scattered Clouds
1:15 AM 15.8 °F 2.7 °F 7.7 °F 70% 29.90 in 10.0 mi West 11.5 mph 19.6 mph N/A   Scattered Clouds
1:34 AM 16.0 °F 1.1 °F 8.8 °F 73% 29.91 in 10.0 mi West 15.0 mph 23.0 mph N/A   Mostly Cloudy
1:55 AM 15.8 °F 3.4 °F 8.6 °F 73% 29.91 in 10.0 mi West 10.4 mph 19.6 mph N/A   Overcast
2:15 AM 16.3 °F 2.7 °F 8.6 °F 72% 29.92 in 10.0 mi West 12.7 mph 20.7 mph N/A   Mostly Cloudy
2:34 AM 15.8 °F 2.7 °F 9.3 °F 76% 29.92 in 10.0 mi West 11.5 mph 18.4 mph N/A   Mostly Cloudy
2:55 AM 15.8 °F 2.1 °F 9.1 °F 75% 29.93 in 10.0 mi West 12.7 mph - N/A   Scattered Clouds
3:15 AM 15.6 °F 2.5 °F 8.6 °F 74% 29.93 in 10.0 mi West 11.5 mph 18.4 mph N/A   Clear
3:34 AM 15.4 °F 2.3 °F 8.2 °F 73% 29.94 in 10.0 mi West 11.5 mph 19.6 mph N/A   Clear
3:55 AM 15.3 °F 0.8 °F 8.2 °F 74% 29.94 in 10.0 mi West 13.8 mph 18.4 mph N/A   Clear
4:15 AM 15.3 °F 2.8 °F 8.2 °F 74% 29.95 in 10.0 mi West 10.4 mph 19.6 mph N/A   Clear
4:35 AM 14.9 °F 3.1 °F 8.4 °F 76% 29.96 in 10.0 mi West 9.2 mph - N/A   Clear
4:55 AM 14.9 °F 3.1 °F 8.6 °F 76% 29.97 in 10.0 mi West 9.2 mph 17.3 mph N/A Snow Light Snow
5:15 AM 15.1 °F 0.5 °F 8.6 °F 76% 29.98 in 10.0 mi West 13.8 mph 18.4 mph N/A   Clear
5:35 AM 15.1 °F 2.5 °F 8.8 °F 76% 29.98 in 10.0 mi West 10.4 mph 17.3 mph N/A   Clear
5:55 AM 15.3 °F 1.4 °F 9.1 °F 77% 29.98 in 10.0 mi West 12.7 mph - N/A   Scattered Clouds
6:15 AM 15.4 °F 0.4 °F 9.5 °F 77% 29.99 in 7.0 mi West 15.0 mph 20.7 mph N/A   Mostly Cloudy
6:35 AM 15.4 °F 2.3 °F 9.5 °F 77% 30.00 in 10.0 mi West 11.5 mph 18.4 mph N/A   Mostly Cloudy
6:55 AM 15.4 °F 2.3 °F 9.5 °F 77% 30.00 in 10.0 mi West 11.5 mph 17.3 mph N/A   Scattered Clouds
7:14 AM 15.4 °F 3.0 °F 9.3 °F 77% 30.01 in 10.0 mi West 10.4 mph 16.1 mph N/A   Scattered Clouds
7:35 AM 15.8 °F 2.7 °F 9.3 °F 76% 30.02 in 10.0 mi West 11.5 mph 16.1 mph N/A   Overcast
7:55 AM 16.5 °F 5.1 °F 9.5 °F 74% 30.03 in 10.0 mi West 9.2 mph - N/A   Overcast
8:14 AM 16.7 °F 4.5 °F 9.1 °F 72% 30.04 in 10.0 mi WNW 10.4 mph 21.9 mph N/A   Overcast
8:35 AM 16.7 °F 4.5 °F 8.6 °F 70% 30.05 in 10.0 mi West 10.4 mph 18.4 mph N/A   Overcast
8:55 AM 17.2 °F 3.3 °F 9.0 °F 70% 30.05 in 10.0 mi West 13.8 mph 20.7 mph N/A   Overcast
9:14 AM 17.6 °F 3.7 °F 9.1 °F 69% 30.06 in 10.0 mi West 13.8 mph 18.4 mph N/A   Overcast
9:35 AM 18.0 °F 4.8 °F 9.5 °F 70% 30.06 in 10.0 mi West 12.7 mph 20.7 mph N/A   Overcast
9:55 AM 18.5 °F 5.5 °F 9.9 °F 69% 30.06 in 10.0 mi West 12.7 mph 19.6 mph N/A   Overcast
10:14 AM 18.5 °F 6.1 °F 10.2 °F 70% 30.07 in 10.0 mi WNW 11.5 mph 18.4 mph N/A   Overcast
10:35 AM 18.9 °F 7.2 °F 10.2 °F 69% 30.08 in 10.0 mi WNW 10.4 mph 19.6 mph N/A   Overcast
10:55 AM 19.4 °F 6.0 °F 10.6 °F 69% 30.08 in 10.0 mi WNW 13.8 mph 17.3 mph N/A   Overcast
11:14 AM 19.4 °F 7.9 °F 10.2 °F 68% 30.09 in 10.0 mi NW 10.4 mph 18.4 mph N/A   Overcast
11:35 AM 20.7 °F 11.0 °F 9.5 °F 62% 30.09 in 10.0 mi NW 8.1 mph - N/A   Overcast
11:55 AM 20.3 °F 6.6 °F 8.6 °F 61% 30.09 in 10.0 mi NW 15.0 mph 23.0 mph N/A   Overcast
12:14 PM 20.8 °F 6.4 °F 9.1 °F 61% 30.10 in 10.0 mi WNW 17.3 mph 25.3 mph N/A   Overcast
12:35 PM 21.0 °F 8.1 °F 8.8 °F 59% 30.10 in 10.0 mi NW 13.8 mph 24.2 mph N/A   Overcast
12:55 PM 21.2 °F 8.9 °F 9.1 °F 60% 30.10 in 10.0 mi WNW 12.7 mph 21.9 mph N/A   Overcast
1:14 PM 21.2 °F 8.9 °F 9.7 °F 61% 30.11 in 10.0 mi NNW 12.7 mph 21.9 mph N/A   Overcast
1:35 PM 21.7 °F 12.3 °F 10.0 °F 61% 30.11 in 10.0 mi NW 8.1 mph 18.4 mph N/A   Overcast
1:55 PM 21.7 °F 10.2 °F 9.9 °F 60% 30.11 in 10.0 mi NW 11.5 mph 20.7 mph N/A   Overcast
2:14 PM 21.7 °F 10.8 °F 9.9 °F 60% 30.12 in 10.0 mi NW 10.4 mph 18.4 mph N/A   Overcast
2:35 PM 21.7 °F 10.2 °F 10.0 °F 61% 30.13 in 10.0 mi NW 11.5 mph 17.3 mph N/A   Overcast
2:55 PM 21.7 °F 10.8 °F 10.2 °F 61% 30.12 in 10.0 mi NNW 10.4 mph 20.7 mph N/A   Overcast
3:15 PM 21.9 °F 11.7 °F 10.9 °F 63% 30.13 in 10.0 mi NW 9.2 mph - N/A   Overcast
3:55 PM 21.7 °F 9.6 °F 10.9 °F 63% 30.15 in 10.0 mi NW 12.7 mph 19.6 mph N/A   Overcast
4:15 PM 21.6 °F 12.1 °F 10.6 °F 63% 30.16 in 10.0 mi NW 8.1 mph 17.3 mph N/A   Overcast
4:35 PM 21.7 °F 14.3 °F 10.9 °F 63% 30.17 in 10.0 mi WNW 5.8 mph - N/A   Overcast
4:54 PM 21.9 °F 11.0 °F 11.7 °F 65% 30.18 in 10.0 mi WNW 10.4 mph - N/A Snow Light Snow
5:15 PM 21.9 °F 11.0 °F 11.7 °F 65% 30.19 in 10.0 mi WNW 10.4 mph 17.3 mph N/A   Overcast
5:35 PM 21.9 °F 13.4 °F 12.0 °F 66% 30.19 in 10.0 mi WNW 6.9 mph - N/A   Overcast
5:55 PM 21.9 °F 14.5 °F 12.2 °F 66% 30.19 in 10.0 mi WNW 5.8 mph - N/A   Overcast
6:15 PM 21.9 °F 13.4 °F 13.6 °F 70% 30.20 in 7.0 mi WNW 6.9 mph - N/A Snow Light Snow
6:35 PM 21.9 °F 11.7 °F 13.5 °F 70% 30.20 in 10.0 mi NW 9.2 mph 17.3 mph N/A   Overcast
6:54 PM 21.7 °F 10.8 °F 13.8 °F 72% 30.21 in 10.0 mi WNW 10.4 mph 18.4 mph N/A Snow Light Snow
7:15 PM 21.6 °F 9.9 °F 13.3 °F 70% 30.21 in 10.0 mi WNW 11.5 mph 20.7 mph N/A Snow Light Snow
7:35 PM 21.6 °F 9.9 °F 13.8 °F 72% 30.21 in 10.0 mi WNW 11.5 mph 17.3 mph N/A Snow Light Snow
7:54 PM 21.6 °F 12.1 °F 13.5 °F 71% 30.22 in 10.0 mi NW 8.1 mph 17.3 mph N/A Snow Light Snow
8:15 PM 21.6 °F 9.9 °F 13.5 °F 71% 30.22 in 10.0 mi NW 11.5 mph - N/A   Overcast
8:35 PM 21.7 °F 10.8 °F 13.3 °F 70% 30.21 in 10.0 mi NW 10.4 mph 18.4 mph N/A   Overcast
8:54 PM 21.7 °F 8.5 °F 13.8 °F 72% 30.22 in 10.0 mi NNW 15.0 mph 19.6 mph N/A   Overcast
9:15 PM 21.7 °F 10.8 °F 14.0 °F 72% 30.22 in 10.0 mi NW 10.4 mph 21.9 mph N/A Snow Light Snow
9:35 PM 21.9 °F 8.7 °F 14.4 °F 73% 30.22 in 10.0 mi NW 15.0 mph 21.9 mph N/A Snow Light Snow
9:54 PM 21.9 °F 9.8 °F 14.4 °F 73% 30.22 in 10.0 mi NW 12.7 mph 21.9 mph N/A Snow Light Snow
10:15 PM 21.9 °F 11.7 °F 14.4 °F 73% 30.22 in 10.0 mi NW 9.2 mph - N/A   Overcast
10:35 PM 22.1 °F 11.3 °F 14.0 °F 71% 30.22 in 10.0 mi NW 10.4 mph 18.4 mph N/A Snow Light Snow
10:54 PM 22.1 °F 12.0 °F 14.4 °F 72% 30.22 in 10.0 mi NNW 9.2 mph - N/A Snow Light Snow
11:15 PM 22.1 °F 10.6 °F 14.5 °F 73% 30.22 in 10.0 mi NW 11.5 mph 19.6 mph N/A Snow Light Snow
11:35 PM 22.1 °F 12.8 °F 15.1 °F 74% 30.22 in 10.0 mi NNW 8.1 mph - N/A Snow Light Snow
11:54 PM 22.1 °F 13.7 °F 14.9 °F 74% 30.22 in 10.0 mi NNW 6.9 mph 16.1 mph N/A Snow Light Snow